Weather in Ischia

Italy     40°43′49″N   13°57′10″E
temp.,
°C
wind,
m/s
gust,
m/s
humid.,
%
clouds,
%
prec.,
mm/h
press.,
hPa
HPBL,
m
30 june, thu
thu3023:00+26nw33750 0.0 1012401
02:00+26w55720 0.0 1013535
05:00+26nw33740 0.0 1012529
08:00+26ssw11730 0.0 1012380
11:00+26ssw22730 0.0 1013321
14:00+26wsw55730 0.0 1013429
17:00+27wnw44700 0.0 1012402
20:00+27nw44700 0.0 1011360
1 july, fri
fri123:00+27nw34690 0.0 1013262
02:00+27nw33663 0.0 1013287
05:00+26wnw33660 0.0 1013309
08:00+26ese11625 0.0 1013197
11:00+27se33630 0.0 1014254
14:00+27w66675 0.0 1015459
17:00+27wnw44654 0.0 1014356
20:00+27wnw34700 0.0 1014251
2 july, sat
sat223:00+27wnw45710 0.0 1015372
02:00+27wnw34690 0.0 1015382
05:00+26wnw56670 0.0 1015416
08:00+26nnw22690 0.0 1016303
11:00+26wnw33680 0.0 1017232
14:00+27w55660 0.0 1017300
17:00+27wnw66680 0.0 1016353
20:00+27wnw34710 0.0 1016249
3 july, sun
sun323:00+27w34710 0.0 1017250
02:00+27w226826 0.0 1016227
05:00+27sse4570100 0.0 1015305
08:00+27sse34705 0.0 1016304
11:00+27s22660 0.0 1016209
14:00+28ssw44660 0.0 1016276
17:00+28wsw44680 0.0 1015277
20:00+28wsw11710 0.0 101555
4 july, mon
mon423:00+28s11720 0.0 101648
02:00+27se33723 0.0 1016155
05:00+27sse22700 0.0 1015174
08:00+27se22680 0.0 1016194
11:00+28s22640 0.0 1016234
14:00+28sw33640 0.0 1015261
17:00+28w44710 0.0 1014283
20:00+28n11730 0.0 101458